sat.trackr.live / text

‹ back to catalog

STARLINK-32540

NORAD 61723 · 2024-196S

PAYLOAD ACTIVE UNKNOWN

§ Identity

Operator
Country
US
Launch date
2024-10-30
Launch site
AFETR
Launch vehicle
Mass (kg)
RCS (m²)

Purposes: comms

External: N2YO · Heavens-Above · Gunter

§ Orbital elements

Epoch: 2026-05-25T02:40:05.476800Z

Period
94.11 min
Inclination
53.1617°
Eccentricity
0.0001231
Mean motion
15.30170933 rev/d
Perigee alt
474.5 km
Apogee alt
476.1 km
Semi-major
6,853.4 km
B*
1.5792e-4
RAAN
70.5553°
Arg perigee
98.3613°
Mean anomaly
261.7527°
Rev number
8,935

§ Raw data

STARLINK-325401 61723U 24196S   26145.11117450  .00004317  00000+0  15792-3 0  99902 61723  53.1617  70.5553 0001231  98.3613 261.7527 15.30170933 89353

JSON: /api/v1/satellites/61723 · /tle

For live sub-satellite position, see the globe view (requires WebGL).

§ Visibility from observer

Set your observer location to see the next 7 days of passes ≥ 10°. The values pass through the URL so the page stays shareable.

No JS? Fill the form by hand. The geolocation button needs JavaScript.